Погода в Маме

Погода в Маме : погода сейчас, прогноз погоды и архив. Всё, что Вы хотите узнать о погоде в Маме!

Поиск расширенной информации на нашем сайте:

Другие новости

Новости СМИ2

Главная страница сайта

Новости сайта

02.10.2013

Напоминаем, что на нашем новом сайте вы можете получить высокодетализированные прогнозы погоды по пунктам России, СНГ и мира (включающие важные для авиации метеовеличины, такие как направление и скорость ветра, видимость, явления погоды, количество и форма облачности, нижняя и верхняя граница облачности), а также ознакомиться с разнообразными материалами по авиационной метеорологии и подборкой полезных ссылок на эту тему.

Сайт Метеоцентр.Азия посвящён разработке технологий оптимизации авиаметеорологического обслуживания, включая проектирование и перспективное создание нескольких автоматизированных авиаметеорологических систем:
- система выпуска высокодетальных прогностических карт явлений погоды для нижнего воздушного пространства по России и ближнему зарубежью;
- система верификации прогнозов TAF (выпускаемых синоптиками официальных АМСГ РФ и ближнего зарубежья) и AUTOTAF (выпускаемых сайтом Метеоцентр.Азия) - выявление ошибок, онлайн-сопоставление с фактической погодой METAR, автоматическое внесение коррективов в прогнозы при резком отклонении фактической погоды от прогноза, подсчёт оправдываемости прогнозов по элементам и в целом;
- система обработки, анализа и отображения авиаметеорологической информации для применения провайдерами метеорологической информации.

Рекомендуем: Подбор авто.

Погода в Маме - сегодня

Время (UTC), дата Ветер
(°,м/с) 
Видим.   Явления Облачность Т
(°С)
Тd
(°С)
f(%) Тe
(°С)
Pmin
(гПа)
dP
(гПа)
Po
(мм)
O2
(г/м3)
Тmin Tmax R s Состояние
почвы
18 19.06.17 тихо ()   20000 м    4/0 верхняя 
[Ci fib]
+13.6 +10.1 79 +15  1014.5  0.6  741  283           
21 19.06.17 тихо ()   0500 м  туман  ?/?  
+10.1 +9.7 97 +11  1015.8  742  286           
00 20.06.17 тихо ()   20000 м  {туман}  8/0 верхняя 
[Ci fib]
+16.1 +12.3 78 +21  1015  -0.2  742  280  +9.8         
03 20.06.17 240 (ЮЗ) 20000 м    3/0 1000 м верхняя 
[Ci fib]
+23.6 +14.5 57 +32  1012.6  -1.7  740  272           
06 20.06.17 330 (СЗ) 20000 м    3/1 1500 м верхняя 
[Cu hum|Ci fib]
+29 +13 37 +35  1009.3  -2.8  738  266           
09 20.06.17 320 (СЗ) 20000 м    ясно 
+30.2 +14.2 38 +38  1008.2  -0.9  737  265           
12 20.06.17 280 (З) 20000 м    ясно 
+27 +15 48 +36  1008.4  -0.1  737  267    +30.9       
15 20.06.17 тихо ()   20000 м    ясно 
+15.1 +12.7 86 +20  1010.8  1.3  738  279           
18 20.06.17 тихо ()   20000 м    ясно 
+11 +10.8 99 +14  1012.5  1.2  739  284           
21 20.06.17 тихо ()   20000 м    ясно 
+9.5 +9.3 99 +10  1013.3  0.7  740  286           
00 21.06.17 тихо ()   20000 м    ясно 
+17.1 +12.2 73 +22  1012.2  -0.3  740  278  +9.3         
03 21.06.17 тихо ()   20000 м    ясно 
+25 +15.6 56 +35  1009.5  -2  738  269           
06 21.06.17 320 (СЗ) 20000 м    ясно 
+31.6 +14 34 +39  1006.6  -2.3  736  263           
09 21.06.17 300 (СЗ) 20000 м    ясно 
+32.8 +14.7 34 +41  1004.5  -1.9  735  261           
12 21.06.17 тихо ()   20000 м    ясно 
+27.8 +21.4 68 +51  1004.8  735  263    +34       
15 21.06.17 тихо ()   20000 м    ясно 
+16.9 +15 89 +26  1007.3  1.4  736  276           
18 21.06.17 тихо ()   20000 м    ясно 
+12.5 +12.3 99 +17  1009.5  1.7  737  282           
21 21.06.17 120 (ЮВ) 20000 м    ясно 
+11.5 +11.3 99 +16  1010.6  0.9  738  283           
00 22.06.17 160 (Ю) 20000 м    ясно 
+17.6 +13 74 +24  1010  738  277  +11         
03 22.06.17 140 (ЮВ) 20000 м    4/0 верхняя 
[Ci fib]
+25.4 +17.6 62 +39  1007.5  -1.6  737  268           
06 22.06.17 140 (ЮВ) 20000 м    3/0 верхняя 
[Ci fib]
+33.8 +18.7 41 +50  1003.8  -3  734  259           
09 22.06.17 190 (Ю) 20000 м    1/1 1500 м кучево-дожд. 
[Cb cap]
+35.5 +20 40 +55  1002.2  -1.5  733  257           
12 22.06.17 290 (З) 20000 м    1/1 1500 м средняя 
[Ac und]
+27.6 +21.6 70 +51  1002.8  0.1  733  263    +36.9       
15 22.06.17 тихо ()   20000 м    ясно 
+17.5 +16.7 95 +30  1005.6  1.8  735  274           
18 22.06.17 тихо ()   20000 м    ясно 
+14.7 +13.6 93 +22  1006.9  0.9  735  278           
Время (UTC), дата Ветер
(°,м/с) 
Видим.   Явления Облачность Т
(°С)
Тd
(°С)
f(%) Тe
(°С)
Pmin
(гПа)
dP
(гПа)
Po
(мм)
O2
(г/м3)
Тmin Tmax R s Состояние
почвы

Для получения пояснительной информации подведите курсор к названию столбца.

ПОГОДА в Маме - архив

Всё, что Вы хотите узнать о погоде в Маме - удобно и подробно!

Выберите нужную дату (начиная с 1 января 2015* года) и нажмите кнопку "Найти".
Будут отображены архивные сводки погоды по пункту Мама, начиная с указанной даты.


Отображать данные в формате CSV (для использования в таблицах Excel)


Внимание! Наш архив погоды предназначен исключительно для личного некоммерческого использования в познавательных целях. Если Вам необходимы официальные справки о состоянии погоды (для производственных, юридических, коммерческих и т.п. целей), обращайтесь в органы Росгидромета.

*Примечание: данная дата относится к архиву по метеостанциям СССР (Россия, СНГ, Балтия).
Архив по метеостанциям Зарубежной Европы и Азии (кроме Китая) хранится 10 дней, по другим регионам земного шара (Китай, Африка, Америка, Австралия, Океания) - 1 день.

Мама - район местоположения метеостанции


Название, широта, долгота, высота метеостанции:
Мама 58.3°ш. 112.9°д. 224 м над ур. моря [Российская Федерация]

Дополнительная информация

В oтличие oт бoльшинства пoгoдных сайтoв мы публикуем пoдрoбную метеoинфoрмацию в детальнoм прoфессиoнальнoм фoрмате.

Характеристики температуры и влажнoсти вoздуха измеряются на высoте 2 м в тени вдали oт зданий и деревьев.
Скoрoсть ветра измеряется на высoте 10 м (на урoвне рoста челoвека скoрoсть ветра ниже в 1.5-2 раза). Если метеoстанция нахoдится в гoрoде или в лесу, тo скoрoсть ветра занижена на 2-4 м/с пo сравнению с oткрытым местoм. Скoрoсть ветра над акватoриями крупных рек и oзёр, а также на вершинах хoлмoв на 2-5 м/с выше, чем в oбычных услoвиях.
Атмoсфернoе давление в разных тoчках местнoсти мoжет значительнo oтличаться oт давления на метеoстанции, в зависимoсти oт услoвий рельефа (при пoдъёме на 10 м давление пoнижается примернo на 1 мм рт.ст.).